Regional Weather Roundup
Issued by NWS Upton, NY

Current Version | Previous Version | Text Only | Print | Product List | Glossary On
Versions: 1 2 3 4 5 6 7 8 9 10 11 12 13 14 15 16 17 18 19 20 21 22 23 24 25 26 27 28 29 30 31 32 33 34 35 36 37 38 39 40 41 42 43 44 45 46 47 48 49 50
909 ASUS41 KOKX 191208 RWROKX REGIONAL WEATHER ROUNDUP NATIONAL WEATHER SERVICE NEW YORK NY 700 AM EST SUN NOV 19 2017 NOTE: "FAIR" INDICATES FEW OR NO CLOUDS BELOW 12,000 FEET WITH NO SIGNIFICANT WEATHER AND/OR OBSTRUCTIONS TO VISIBILITY. NYZ071-072-176-178-NJZ106-104-191300- NEW YORK CITY METRO AREA CITY SKY/WX TMP DP RH WIND PRES REMARKS Central Park LGT RAIN 57 54 89 VRB6G17 29.24F Bronx Bot Gard N/A 57 52 82 W18 29.21S LaGuardia APRT LGT RAIN 58 53 84 SW20G35 29.22F Kennedy INTL LGT RAIN 58 56 93 SW22G29 29.25F Breezy Point N/A 57 N/A N/A SW15G22 N/A Newark/Liberty LGT RAIN 57 53 86 SW22G36 29.22F Teterboro DRIZZLE 58 56 93 SW16 29.20F $$ NYZ177-179-078>081-191300- LONG ISLAND NEW YORK CITY SKY/WX TMP DP RH WIND PRES REMARKS Jones Beach N/A 57 N/A N/A SW13G21 N/A Matinecock PT N/A 57 N/A N/A SW25G36 N/A Farmingdale LGT RAIN 57 55 93 SW18G25 29.24F MacArthur/ISP LGT RAIN 58 56 93 SW18G32 29.24F Shirley LGT RAIN 58 57 97 S17G31 29.25F Mt Sinai Harb N/A N/A N/A N/A S13G21 N/A Westhampton LGT RAIN 58 55 90 SW16G28 29.28F East Hampton LGT RAIN 57 56 94 SW15G24 29.27F Southold NOT AVBL Montauk NOT AVBL $$ NYZ052-065-067-191300- HUDSON VALLEY CITY SKY/WX TMP DP RH WIND PRES REMARKS White Plains LGT RAIN 58 55 90 VRB7G18 29.20F Larchmont Harb N/A 57 N/A N/A S25G31 N/A Croton On Huds N/A 59 N/A N/A S12G18 N/A Newburgh CLOUDY 57 55 94 SW14 29.17R Montgomery CLOUDY 54 52 93 SW12 29.15F Poughkeepsie CLOUDY 58 52 80 SW9 29.15F Albany CLOUDY 51 47 86 S17G26 29.10S $$ NJZ001-105-106-008-010-013-015-019>022-104-191300- NEW JERSEY CITY SKY/WX TMP DP RH WIND PRES REMARKS Newark/Liberty LGT RAIN 57 53 86 SW22G36 29.22F Teterboro DRIZZLE 58 56 93 SW16 29.20F Caldwell LGT RAIN 58 56 93 SW12G22 29.21S Somerville CLOUDY 57 52 83 W9G18 29.25R Linden LGT RAIN 57 52 84 W13G21 29.23F Perth Amboy N/A 57 N/A N/A W20G28 N/A Sussex CLOUDY 56 52 86 SW9G23 29.21R Andover NOT AVBL Trenton CLOUDY 57 49 74 W20G31 29.29R Millville CLOUDY 55 48 77 W25G35 29.38R Atlantic City HVY RAIN 60 57 89 SW20G33 29.32R FOG Wrightstown LGT RAIN 57 54 88 W24G35 29.27R Toms River RAIN 59 56 89 SW16 29.29S Belmar LGT RAIN 59 56 89 SW18G28 29.26F $$ PAZ047>061-062-071-191300- EASTERN PENNSYLVANIA CITY SKY/WX TMP DP RH WIND PRES REMARKS Philadelphia CLOUDY 54 41 61 W31G41 29.37R Allentown CLOUDY 50 37 61 W23G35 29.33R Scranton CLOUDY 47 36 65 W26G38 29.34R $$ CTZ002-004>006-009-010-012-RIZ004-006-007-MAZ004-011-015-191300- SOUTHERN NEW ENGLAND IN CT CITY SKY/WX TMP DP RH WIND PRES REMARKS Bradley INTL LGT RAIN 56 55 97 S12 29.18F Hartford LGT RAIN 58 56 93 S10 29.19F Danbury LGT RAIN 59 54 83 SW13G22 29.19F Wtrbury/Oxford LGT RAIN 56 55 97 SW13G22 29.21F Norwalk Harbor N/A 57 N/A N/A S21 N/A Bridgeport LGT RAIN 58 55 90 SW17 29.20F Meriden LGT RAIN 57 55 93 S10 29.21F New Haven CLOUDY 58 55 90 SW13 29.22F Chester LGT RAIN 57 55 94 SW12G24 29.23F Groton LGT RAIN 59 56 89 SW23G32 29.24F Wilimantic LGT RAIN 60 55 83 SW15G23 29.21F IN RI CITY SKY/WX TMP DP RH WIND PRES REMARKS Providence RAIN 60 59 96 SW20G30 29.25F FOG Block Island LGT RAIN 59 58 96 SW26G32 29.28F FOG Westerly LGT RAIN 60 58 92 SW17G38 29.26F FOG IN MA CITY SKY/WX TMP DP RH WIND PRES REMARKS Boston LGT RAIN 58 56 93 S18G26 29.21S Worcester LGT RAIN 54 52 93 S16G23 29.20S Westfield CLOUDY 55 54 96 S10 29.16F FOG Provincetown LGT RAIN 58 56 93 SW25G31 29.29F FOG Nantucket LGT RAIN 57 56 96 S18 29.34F $$ ANZ330-335-338-340-345-350-353-355-191300- COASTAL MARINE OBSERVATIONS STATION/POSITION TIME SKY/WX TEMP WIND PRES VSBY WAVE AIR SEA DIR/SP/G HT/PER (UTC) (F) (DEG/KT/KT) (MB) (MI) (FT/S) NY HARB ENTRANCE 1050 58 59 200/ 21/ 25 989.7 8/ 9 20 S FIRE ISLAND 1050 60 58 220/ 27/ 33 991.2 12/ 8 GREAT SOUTH BAY 1130 55 46 210/ 21/ 27 N/A HUDSON CANYON 1050 64 61 220/ 27/ 35 993.6 14/ 9 KINGS POINT NOT AVBL EXECUTION ROCKS 1130 58 180/ 19/ 27 N/A WESTERN LI SOUND 1049 58 210/ 19/ 25 N/A 2/ 3 CENTRAL LI SOUND 1145 59 210/ 23/ 29 N/A 4 ROBBINS REEF NOT AVBL $$ >>>>>>>>>>>>>>>>>>>>>>>>>>>> KEY <<<<<<<<<<<<<<<<<<<<<<<<<<< > < > SKY/WX - Sky Condition/Present Weather < > TMP - Temperature in Fahrenheit < > DP - Dew Point in Fahrenheit < > RH - Relative Humidity in Percent < > WIND - Direction (from) and Speed in MPH < > PRES - Mean Sea Level Pressure (inches of Hg) < > WCI - Wind Chill Index < > VSB - VISIBILITY IN MILES < > HX - HEAT INDEX < > TC - TEMPERATURE IN CELSIUS < > VRB - VARIABLE WIND DIRECTION < > < >>>>>>>>>>>>>>>>>>>>>>>>>>>> KEY <<<<<<<<<<<<<<<<<<<<<<<<<<<

USA.gov is the U.S. government's official web portal to all federal, state and local government web resources and services.